Location: Grantsboro
(35.1404°N, 76.8424°W)
Time: 22:20:07
(UTC+00:00)

Cosmos 1626 Rocket - Pass Details

Date: 18 January 2020
Orbit: 603 x 631 km, 82.5° (Epoch: 16 February)

Event Time Altitude Azimuth Distance (km) Brightness Sun altitude
Exits shadow 10:38:36 34° 329° (NNW) 1,013 4.3 -19.4°
Maximum altitude 10:40:16 58° 267° (W) 713 3.5 -19.1°
Drops below altitude 10° 10:44:31 10° 188° (S) 1,958 6.2 -18.2°
Sets 10:46:46 0° 184° (S) 2,862 7.1 -17.8°
